Vertical_Velocity
1 6 1 1 0 -0 -1 -1 0 -1 -1 -2 -1 -0 -0 0 1 0 0 -1 0 1 -0 -0 0 0 1 0 1 -0 -1 -0 -1 -1 -1 0 -0 -1 -1 -0 1 -0 0
0 1 3 3 2 0 0 0 1 -1 -1 -1 -1 -1 -0 0 1 0 -0 -0 1 1 2 0 -1 -0 -0 0 0 0 0 -0 -1 -1 -1 1 0 -1 -0 0 1 1 1
4 3 2 3 3 1 0 1 1 -0 -0 -0 -0 -1 -0 -0 -0 0 1 1 0 0 1 2 0 -1 0 -0 0 -0 1 0 -1 -0 -0 -1 -1 -1 -1 -1 -0 -1 -1
3 4 1 2 3 2 0 1 1 0 1 -0 -1 -0 0 1 -0 -0 -0 0 0 -1 0 0 0 1 -0 -1 -1 -1 -1 -0 0 0 -0 -0 -0 0 1 0 0 -0 -2
3 7 3 3 3 1 2 1 1 0 1 1 0 0 -1 2 1 0 -0 -0 0 -1 1 0 1 0 -1 -0 -1 -1 -0 -0 1 1 0 0 0 -0 1 0 -0 -0 0
-0 8 5 4 4 2 2 1 2 1 -0 0 1 0 -0 1 0 0 0 0 -0 -1 -0 0 -1 -0 0 0 0 0 -0 0 1 0 1 1 1 -1 -1 1 0 -1 0
1 9 3 3 3 3 3 2 2 2 2 -0 1 -0 -0 1 1 0 -0 0 -1 1 1 -0 0 0 0 0 0 1 -1 -1 0 0 0 0 0 0 1 0 0 -0 0
2 5 9 6 4 1 2 2 2 1 2 0 0 0 -0 -0 0 -0 0 1 0 1 1 -1 -0 1 1 1 -1 0 1 -0 1 -0 -0 -0 0 0 -0 -1 -1 -1 -0
4 6 7 7 4 3 0 0 1 1 2 1 -0 -0 -0 -1 -0 -1 1 0 1 1 -1 1 -0 -0 2 2 -0 -0 1 0 0 -0 -0 -1 -1 -2 -1 -1 -2 -1 -1
8 4 4 8 7 3 2 1 1 2 1 1 -1 1 0 -0 -0 -0 2 2 1 1 -0 1 1 -2 2 2 1 1 1 0 1 0 -0 -0 -1 -0 -1 -2 -1 -1 -2
19 4 4 5 6 4 1 1 1 3 -0 1 0 -0 -0 0 0 -1 1 2 2 0 1 1 1 -0 0 2 2 1 1 1 -0 0 -1 -0 0 -2 -0 0 -0 0 1
56 -1 -2 -0 3 3 3 3 2 2 4 2 0 -0 -1 -0 -0 -0 0 2 2 2 1 1 -1 0 -0 1 -2 -1 0 0 -1 -1 -0 -1 1 -1 0 -0 1 -3 -0
1 56 21 11 7 1 1 5 5 4 4 2 2 2 0 0 -0 -1 -0 2 0 2 1 0 1 1 0 1 -1 -1 0 0 -0 1 -1 -1 0 -1 -0 -1 -1 1 -1
2 80 -4 2 10 2 4 3 5 4 3 3 3 4 2 2 0 0 -1 1 1 2 1 1 0 -0 1 1 1 0 -0 -0 -0 0 -0 -1 -1 -0 -1 0 -2 -3 1
-27 40 -9 48 14 9 -0 5 4 3 4 4 3 4 1 2 0 -1 -2 1 -1 2 2 1 -0 -0 0 1 2 1 -0 0 -2 1 0 1 -0 -2 0 -0 0 0 -2
-18 -7 14 24 2 26 14 4 5 2 4 3 4 3 2 3 1 -0 -0 1 -2 1 0 -0 -0 -1 0 0 1 0 1 1 -1 0 -1 0 1 1 1 -2 -0 -1 -1
-19 -31 -38 30 30 102 29 15 4 0 4 5 5 0 1 2 3 1 -1 -0 0 0 1 1 2 -0 -1 -0 0 0 1 -0 -0 -0 -0 1 1 0 2 1 1 0 -0
-19 -22 -5 5 -34 38 6 13 15 4 1 4 4 2 -1 1 2 1 1 -1 2 1 1 1 1 1 1 -0 -1 -0 -1 0 -1 -0 -1 0 -2 0 -0 1 -0 -0 0
-12 -11 -14 -58 -1 7 4 13 8 14 5 -3 4 4 1 -1 3 3 -1 -0 -1 1 1 0 0 1 1 1 -0 -0 -0 1 1 1 -2 1 -2 -1 -2 -3 -0 2 1
3 -8 -27 -14 -27 -12 -19 -6 4 7 11 5 3 0 1 1 -1 3 1 -2 -1 -2 -1 -0 -0 -1 -0 0 -1 -1 -1 -0 0 0 -0 2 -0 -1 -1 -3 -4 -1 -0
6 -13 10 -5 11 -21 -42 -22 -30 3 11 5 4 2 -3 3 -2 -0 0 -1 -0 -1 -1 -1 -0 -1 -1 -1 -1 -6 -3 -1 1 -1 0 0 0 -3 -2 -0 -2 -3 -1
1 7 10 4 -3 -19 -25 -17 -14 -16 3 3 10 2 -1 3 -1 -1 2 3 1 2 -0 2 1 2 -0 2 -0 -0 -2 -3 1 1 2 1 5 -0 -1 -0 -2 -5 -3
8 11 1 20 12 13 13 -23 4 -6 3 0 9 -3 1 5 1 1 -1 3 1 3 3 4 2 4 4 3 6 -2 -2 -3 0 -0 1 3 2 1 -1 -4 -1 4 -2
7 8 15 1 -15 6 -19 -14 -12 -20 -9 7 3 2 4 4 3 2 -1 3 -0 1 2 2 2 1 0 0 2 5 -4 -1 -4 1 0 2 3 1 2 0 -1 -5 1
1 2 4 4 23 -9 -7 -6 5 -28 -23 -25 5 2 0 3 5 -1 -1 -3 -0 -4 -0 -4 -5 -1 -2 -2 5 6 -2 1 1 0 -5 -2 5 0 0 5 -4 -0 3
0 1 -1 2 -1 6 -12 -1 8 -12 2 1 -6 5 4 0 2 -4 -1 1 -0 2 5 -3 -1 -1 3 -8 4 1 6 -0 -2 -7 4 -1 -0 1 -2 0 -7 1 -1
Height
3140 3141 3141 3142 3143 3144 3145 3146 3148 3150 3150 3150 3152 3153 3155 3157 3159 3160 3162 3163 3164 3166 3167 3168 3169 3170 3171 3171 3171 3171 3171 3172 3172 3172 3173 3173 3173 3174 3174 3174 3174 3174 3174
3138 3138 3139 3141 3142 3142 3143 3145 3147 3149 3150 3150 3151 3152 3154 3156 3158 3160 3162 3163 3165 3166 3167 3168 3169 3169 3170 3171 3171 3172 3172 3173 3174 3174 3174 3175 3175 3174 3174 3174 3174 3174 3174
3135 3136 3137 3138 3140 3141 3142 3143 3145 3147 3149 3150 3151 3152 3154 3155 3157 3160 3162 3163 3165 3166 3167 3168 3169 3170 3170 3171 3172 3173 3174 3174 3174 3175 3175 3175 3176 3176 3175 3176 3176 3175 3175
3132 3134 3134 3136 3138 3139 3140 3142 3143 3146 3147 3149 3150 3152 3153 3156 3158 3160 3162 3164 3165 3166 3167 3168 3169 3170 3170 3171 3172 3173 3173 3173 3174 3175 3175 3176 3176 3177 3177 3178 3178 3177 3177
3128 3130 3131 3133 3135 3136 3138 3140 3141 3144 3146 3148 3150 3151 3153 3155 3158 3160 3161 3164 3165 3166 3167 3168 3169 3170 3171 3171 3172 3173 3174 3174 3174 3175 3176 3176 3177 3177 3178 3178 3178 3178 3178
3123 3126 3128 3130 3132 3134 3136 3138 3140 3142 3144 3147 3149 3151 3153 3155 3157 3159 3161 3163 3165 3166 3167 3168 3168 3169 3170 3171 3172 3173 3174 3174 3175 3175 3176 3177 3177 3177 3178 3177 3177 3177 3177
3118 3121 3124 3126 3129 3131 3134 3136 3138 3140 3142 3145 3148 3150 3152 3154 3157 3158 3161 3163 3165 3166 3167 3168 3168 3169 3170 3171 3172 3173 3174 3175 3175 3176 3176 3177 3177 3177 3177 3177 3177 3177 3177
3112 3116 3119 3122 3125 3128 3131 3133 3136 3138 3140 3143 3146 3149 3151 3153 3155 3158 3160 3162 3164 3165 3166 3167 3169 3169 3170 3171 3172 3173 3174 3175 3176 3177 3177 3177 3177 3177 3177 3177 3177 3177 3177
3107 3110 3114 3117 3121 3124 3127 3130 3133 3136 3138 3141 3144 3146 3149 3151 3154 3157 3159 3161 3163 3165 3165 3167 3168 3170 3170 3171 3172 3173 3173 3174 3176 3176 3177 3177 3177 3177 3177 3177 3177 3176 3176
3101 3104 3108 3112 3116 3119 3122 3126 3130 3133 3136 3139 3141 3144 3146 3149 3152 3155 3158 3160 3161 3163 3165 3166 3168 3170 3170 3171 3172 3172 3173 3174 3174 3175 3176 3177 3177 3178 3177 3177 3177 3176 3176
3092 3099 3103 3108 3110 3114 3118 3121 3126 3130 3133 3137 3139 3142 3144 3147 3150 3153 3156 3158 3160 3161 3163 3165 3167 3169 3171 3171 3171 3172 3172 3173 3174 3175 3176 3176 3177 3177 3177 3177 3177 3176 3176
3082 3092 3098 3103 3105 3109 3112 3117 3122 3126 3130 3134 3136 3139 3142 3145 3148 3150 3153 3156 3158 3159 3161 3163 3166 3168 3171 3171 3171 3172 3172 3173 3174 3175 3175 3176 3176 3177 3177 3177 3176 3176 3175
3073 3079 3087 3096 3101 3104 3107 3112 3118 3122 3126 3129 3133 3136 3138 3141 3145 3148 3151 3154 3156 3157 3159 3162 3164 3166 3169 3170 3170 3171 3172 3173 3173 3174 3174 3175 3176 3176 3176 3176 3175 3175 3174
3050 3065 3070 3085 3095 3099 3103 3109 3114 3119 3122 3126 3129 3133 3135 3137 3141 3144 3148 3151 3153 3155 3157 3160 3162 3164 3167 3168 3170 3170 3170 3171 3172 3173 3173 3174 3174 3174 3174 3174 3174 3173 3172
3049 3052 3064 3077 3086 3093 3097 3103 3108 3114 3119 3123 3125 3129 3131 3134 3137 3141 3145 3148 3150 3152 3155 3157 3159 3161 3164 3166 3167 3168 3169 3170 3170 3171 3172 3172 3172 3172 3172 3172 3171 3171 3170
3047 3050 3050 3064 3079 3086 3091 3096 3101 3108 3114 3118 3122 3125 3128 3131 3134 3137 3141 3145 3148 3150 3152 3154 3156 3159 3162 3164 3165 3166 3168 3168 3169 3169 3170 3170 3170 3170 3170 3170 3170 3169 3169
3045 3046 3054 3061 3062 3062 3087 3090 3095 3102 3109 3113 3117 3121 3124 3127 3130 3133 3137 3142 3145 3147 3150 3152 3154 3157 3159 3161 3163 3164 3165 3166 3167 3167 3167 3167 3167 3167 3167 3167 3167 3166 3166
3045 3047 3045 3060 3063 3057 3066 3085 3090 3096 3103 3108 3113 3116 3121 3124 3127 3130 3133 3137 3141 3144 3147 3148 3150 3154 3156 3159 3161 3162 3163 3164 3164 3165 3165 3165 3165 3165 3165 3164 3164 3163 3162
3039 3039 3043 3047 3054 3051 3067 3072 3078 3090 3097 3103 3108 3112 3116 3121 3124 3126 3130 3133 3137 3141 3144 3147 3148 3151 3154 3156 3158 3160 3161 3161 3162 3162 3163 3163 3163 3162 3162 3162 3161 3160 3159
3042 3038 3042 3047 3049 3056 3057 3061 3063 3077 3090 3097 3103 3107 3112 3116 3121 3124 3127 3131 3134 3138 3141 3144 3146 3148 3151 3153 3155 3156 3158 3159 3160 3160 3160 3160 3160 3159 3159 3158 3157 3157 3156
3038 3040 3042 3044 3047 3051 3055 3059 3059 3076 3083 3092 3098 3102 3108 3113 3117 3121 3125 3128 3132 3135 3139 3141 3144 3146 3149 3151 3152 3155 3156 3156 3156 3157 3157 3156 3156 3156 3155 3155 3154 3153 3151
3041 3043 3045 3045 3042 3043 3048 3056 3058 3070 3081 3085 3092 3098 3105 3110 3113 3117 3122 3125 3129 3132 3136 3138 3141 3143 3145 3146 3148 3150 3152 3154 3153 3153 3153 3153 3152 3152 3150 3149 3149 3148 3146
3037 3040 3042 3042 3039 3045 3045 3061 3067 3066 3073 3082 3087 3094 3101 3106 3109 3113 3117 3121 3125 3128 3131 3134 3137 3140 3142 3144 3145 3147 3148 3150 3151 3150 3150 3149 3148 3148 3147 3145 3144 3143 3141
3036 3036 3036 3037 3042 3040 3043 3055 3064 3070 3075 3080 3086 3091 3097 3102 3105 3109 3113 3116 3120 3123 3126 3129 3132 3135 3138 3141 3143 3144 3145 3146 3145 3146 3146 3145 3144 3142 3142 3140 3139 3137 3135
3034 3035 3036 3040 3042 3044 3046 3050 3057 3064 3066 3077 3082 3089 3093 3097 3100 3104 3109 3113 3116 3119 3122 3124 3127 3129 3132 3135 3136 3138 3138 3139 3138 3138 3138 3140 3139 3137 3137 3135 3133 3131 3130
3031 3033 3037 3040 3042 3044 3048 3054 3056 3060 3065 3069 3075 3084 3090 3093 3097 3102 3105 3109 3112 3115 3117 3120 3123 3126 3127 3129 3130 3131 3132 3132 3131 3131 3130 3132 3132 3130 3128 3127 3126 3125 3123